AirNav   Air Wisconsin Up To $57,000 Bonus
 
 1495 users online  

W34 Shiocton Airport
Shiocton, Wisconsin, USA

GOING TO SHIOCTON?


FAA INFORMATION EFFECTIVE 22 APRIL 2021

Location

FAA Identifier: W34
Lat/Long: 44-27-19.6644N 088-33-42.5070W
44-27.327740N 088-33.708450W
44.4554623,-88.5618075
(estimated)
Elevation: 770 ft. / 235 m (estimated)
Variation: 01W (1985)
From city: 1 mile NE of SHIOCTON, WI
Time zone: UTC -5 (UTC -6 during Standard Time)
Zip code: 54170

Airport Operations

Airport use: Open to the public
Activation date: 06/1986
Control tower: no
ARTCC: MINNEAPOLIS CENTER
FSS: GREEN BAY FLIGHT SERVICE STATION
NOTAMs facility: GRB (NOTAM-D service available)
Attendance: UNATNDD
ARPT CLSD 15 MAR - 25 APR.
Wind indicator: yes
Segmented circle: no

Airport Communications

CTAF: 122.9
WX AWOS-3 at CLI (12 nm NW): 120.675 (715-823-7691)
WX AWOS-3 at ATW (12 nm S): PHONE 920-832-2597
WX ASOS at GRB (19 nm E): 124.1 (920-494-7140)
WX AWOS-3 at EZS (20 nm N): 118.65 (715-526-2967)

Nearby radio navigation aids

VOR radial/distance  VOR name  Freq  Var
GRBr248/16.8GREEN BAY VORTAC115.5001E
OSHr357/27.9OSHKOSH VORTAC116.7502E

 
NDB name  Hdg/Dist  Freq  Var  ID
FAMIS276/13.835602WGR --. .-.

Airport Services

Fuel available: MOGAS
Parking: tiedowns

Runway Information

Runway 18/36

Dimensions: 2200 x 110 ft. / 671 x 34 m
Surface: turf, in good condition
Runway edge markings: RWY 18/36 MKD WITH ORANGE & WHITE BARRELS.
RUNWAY 18  RUNWAY 36
Latitude: 44-27.596667N44-27.234667N
Longitude: 088-33.639333W088-33.639333W
Elevation: 770.0 ft.770.0 ft.
Traffic pattern: leftleft
Runway end identifier lights: nono
Touchdown point: yes, no lightsyes, no lights
Obstructions: none81 ft. trees, 1325 ft. from runway, 125 ft. right of centerline, 16:1 slope to clear

Runway 9/27

Dimensions: 1315 x 110 ft. / 401 x 34 m
Surface: turf, in good condition
Runway edge markings: RWY 9/27 MKD WITH ORANGE & WHITE BARRELS.
RUNWAY 9  RUNWAY 27
Latitude: 44-27.182333N44-27.182333N
Longitude: 088-33.973833W088-33.671667W
Elevation: 770.0 ft.770.0 ft.
Traffic pattern: leftleft
Touchdown point: yes, no lightsyes, no lights

Airport Ownership and Management from official FAA records

Ownership: Privately-owned
Owner: SHIOCTON FLYERS CLUB INC
7551 PARK AVE
SHIOCTON, WI 54170
Phone 920-986-3690
Manager: PATRICK J VAN STRATEN
7551 PARK AVE
SHIOCTON, WI 54170
Phone 920-986-3690

Airport Operational Statistics

Aircraft based on the field: 16
Single engine airplanes: 13
Ultralights: 3
  • ULTRALIGHT ACT ON & INVOF ARPT.
    
Aircraft operations: avg 77/week *
75% local general aviation
25% transient general aviation
* for 12-month period ending 24 June 2020

Additional Remarks

DEER ACT ON & INVOF ARPT.
FOR CD CTC MINNEAPOLIS ARTCC AT 651-463-5588.

Instrument Procedures

There are no published instrument procedures at W34.

Some nearby airports with instrument procedures:

KCLI - Clintonville Municipal Airport (12 nm NW)
KATW - Appleton International Airport (12 nm S)
KGRB - Green Bay-Austin Straubel International Airport (19 nm E)
KEZS - Shawano Municipal Airport (20 nm N)
KPCZ - Waupaca Municipal Airport (21 nm W)
 
Loc | Ops | Rwys | IFR | FBO | Links
Com | Nav | Svcs | Stats | Notes
Area around W34 (Shiocton Airport)
 
Road maps at: MapQuest Bing Google
 
Aerial photo
No photo
 
Sectional chart

 
Airport distance calculator
Flying to Shiocton Airport? Find the distance to fly.

From to W34

Sunrise and sunset
Times for 10-May-2021
 Local
(UTC-5)
 Zulu
(UTC)
Morning civil twilight05:0010:00
Sunrise05:3410:34
Sunset20:0801:08
Evening civil twilight20:4101:41

Current date and time
Zulu (UTC)  10-May-2021 21:13:43
Local (UTC-5)  10-May-2021 16:13:43
 
METAR
KCLI 
11nm NW 
102055Z AUTO 36006KT 10SM OVC095 11/M07 A3016 RMK AO2 T01051072
KATW 
12nm S 
102045Z 03010KT 10SM BKN085 09/M02 A3014
KGRB 
18nm E 
102053Z 32010KT 300V360 10SM SCT060 BKN070 OVC100 11/M02 A3016 RMK AO2 RAB1958E25 SLP218 P0001 60001 T01111022 58005
KEZS 
20nm N 
715-526-2967
102055Z AUTO 31005KT 10SM SCT070 11/M04 A3016 RMK AO2 T01091043
KPCZ 
21nm W 
102055Z AUTO 34005KT 10SM SCT070 BKN090 12/M06 A3017 RMK AO2 T01201057
TAF
KATW 
12nm S 
101722Z 1018/1118 35006KT P6SM BKN050 OVC070 TEMPO 1019/1023 -SHRA BKN030 FM110000 06006KT P6SM BKN060 FM110300 VRB03KT P6SM SCT070 FM110700 33005KT P6SM SKC FM111500 35009G16KT P6SM SKC
KGRB 
18nm E 
101120Z 1012/1112 36005KT P6SM SCT090 FM101500 36007KT P6SM BKN060 TEMPO 1020/1024 -SHRA BKN035 FM110200 04004KT P6SM SCT060 FM110600 33004KT P6SM SKC
NOTAMs
Click for the latest NOTAMs
NOTAMs are issued by the DoD/FAA and will open in a separate window not controlled by AirNav.

 

 
 

FBO, Fuel Providers, and Aircraft Ground Support

  
 Business Name 
 
 Contact 
 
 Services / Description 
 
Fuel Prices
 
Comments
  
Shiocton Flyers Club, Inc. 920-986-3690
no information available

If you are affiliated with Shiocton Flyers Club, Inc. and would like to show here your services, contact info, web link, logo, and more, click here
Mogas
RA $3.00 
 Updated 01-Jul-2015
 
   write
RA=Restricted
Update Fuel Prices
 

Would you like to see your business listed on this page?

 If your business provides an interesting product or service to pilots, flight crews, aircraft, or users of the Shiocton Airport, you should consider listing it here.  To start the listing process, click on the button below
 
Add a business
 

Other Pages about Shiocton Airport

www.shioctonairport.com
Page from the Wisconsin airport directory (PDF)
 
Update a link
 
Copyright © AirNav, LLC. All rights reserved. Privacy Policy  Contact